Regional Weather Roundup
Issued by NWS

Home | Current Version | Previous Version | Graphics & Text | Print | Product List | Glossary Off
Versions: 1 2 3 4 5 6 7 8 9 10 11 12 13 14 15 16 17 18 19 20 21 22 23 24 25 26 27 28 29 30 31 32 33 34 35 36 37 38 39 40 41 42 43 44 45 46 47 48 49 50

000
ASUS43 KMKX 271221
RWRWI

WISCONSIN REGIONAL WEATHER ROUNDUP
NATIONAL WEATHER SERVICE MILWAUKEE/SULLIVAN WI
600 AM CST THU NOV 27 2014

NOTE: "FAIR" INDICATES FEW OR NO CLOUDS BELOW 12,000 FEET WITH NO
SIGNIFICANT WEATHER AND/OR OBSTRUCTIONS TO VISIBILITY.

WIZ001-002-006>008-014>016-023>028-271300-
NORTHWEST WISCONSIN

CITY           SKY/WX    TMP DP  RH WIND       PRES   REMARKS
SUPERIOR ARPT  PTCLDY    -4  -9  79 W3        30.50R
6HR MIN TEMP:  -4; 6HR MAX TEMP:   2;

ASHLAND        CLOUDY     0  -3  87 W6        30.43S WCI -12
6HR MIN TEMP:  -2; 6HR MAX TEMP:  10; 6HR PCP: TRACE;

HAYWARD        CLEAR     -4  -9  79 CALM      30.40R
6HR MIN TEMP:  -4; 6HR MAX TEMP:   7;

SIREN          CLEAR     -4  -8  84 NW3       30.47S
6HR MIN TEMP:  -5; 6HR MAX TEMP:   6;

CUMBERLAND     CLEAR     -2  -8  78 NW8       30.41R WCI -17
RICE LAKE      CLEAR     -1  -6  79 NW7       30.43R WCI -15
6HR MIN TEMP:  -1; 6HR MAX TEMP:  12;

CHETEK         CLEAR     -1  -5  82 NW3       30.42R
6HR MIN TEMP:  -1; 6HR MAX TEMP:  13;

LADYSMITH      CLEAR      0  -3  84 NW8       30.38S WCI -14
6HR MIN TEMP:   0; 6HR MAX TEMP:  15;

EAU CLAIRE     CLEAR      1  -5  75 NW8       30.42R WCI -13
6HR MIN TEMP:   1; 6HR MAX TEMP:  17; 6HR PCP: TRACE;

MENOMONIE      CLEAR      1  -5  75 NW9       30.43R WCI -14
6HR MIN TEMP:   1; 6HR MAX TEMP:  17;

NEW RICHMOND   CLEAR     -1  -5  80 N12       30.45R WCI -18
6HR MIN TEMP:  -1; 6HR MAX TEMP:  10;

OSCEOLA        CLEAR      0  -5  81 NW9       30.50R WCI -16
6HR MIN TEMP:   0; 6HR MAX TEMP:  10;

$$

WIZ003>005-009-010-017-018-271300-
NORTH CENTRAL WISCONSIN

CITY           SKY/WX    TMP DP  RH WIND       PRES   REMARKS
MANITOWISH WTR LGT SNOW   3  -1  85 NW7       30.28R WCI -10
6HR MIN TEMP:   3; 6HR MAX TEMP:  14;

ARBOR VITAE    LGT SNOW   8   4  85 NW7       30.27R WCI  -4
6HR MIN TEMP:   6; 6HR MAX TEMP:  17;

WOODRUFF       LGT SNOW   8   4  85 NW7       30.27R WCI  -4
6HR MIN TEMP:   6; 6HR MAX TEMP:  17;

RHINELANDER    MOCLDY     6   3  87 NW5       30.27R WCI  -3
6HR MIN TEMP:   6; 6HR MAX TEMP:  15; 6HR PCP: TRACE;

EAGLE RIVER    PTCLDY     4   1  84 CALM      30.25S
6HR MIN TEMP:   4; 6HR MAX TEMP:  15;

LAND O LAKES   LGT SNOW   5   2  88 NW5       30.26R WCI  -4
6HR MIN TEMP:   5; 6HR MAX TEMP:  15;

PHILLIPS       PTCLDY     2  -2  85 NW6       30.31R WCI -10
6HR MIN TEMP:   2; 6HR MAX TEMP:  13;

TOMAHAWK       CLOUDY     7   2  82 CALM      30.29S
6HR MIN TEMP:   7; 6HR MAX TEMP:  17;

MEDFORD        FLURRIES   6   2  84 NW8       30.29S WCI  -7
6HR MIN TEMP:   6; 6HR MAX TEMP:  17;

MERRILL        LGT SNOW   9   6  84 N8        30.29R WCI  -3
6HR MIN TEMP:   9; 6HR MAX TEMP:  19;

$$

WIZ029-030-035-036-043>047-271300-
CENTRAL WISCONSIN

CITY           SKY/WX    TMP DP  RH WIND       PRES   REMARKS
WAUSAU         FLURRIES  12   7  80 NW10      30.28R WCI  -1
6HR MIN TEMP:  12; 6HR MAX TEMP:  20; 6HR PCP: TRACE;

MOSINEE        SNOWSHWR  12  10  92 N8        30.28R WCI   1
MARSHFIELD     LGT SNOW  12   6  77 NW13      30.30R WCI  -3
6HR MIN TEMP:  12; 6HR MAX TEMP:  20; 6HR PCP: TRACE;

STEVENS POINT  LGT SNOW  12   8  84 NW8       30.30R WCI   1
6HR MIN TEMP:  12; 6HR MAX TEMP:  19;

WAUPACA        PTCLDY    18  13  80 NW8       30.29R WCI   8
6HR MIN TEMP:  18; 6HR MAX TEMP:  26;

WAUTOMA        CLOUDY    17  11  77 NW14      30.30R WCI   3
6HR MIN TEMP:  17; 6HR MAX TEMP:  24;

WISC RAPIDS    LGT SNOW  15   8  73 NW10      30.32R WCI   2
6HR MIN TEMP:  15; 6HR MAX TEMP:  22; 6HR PCP: TRACE;

CAMP DOUGLAS   FLURRIES  16  14  90 NW13      30.33R WCI   3
6HR MIN TEMP:  16; 6HR MAX TEMP:  23; 6HR PCP: TRACE;

$$

WIZ011>013-019>022-031-037>040-048>050-271300-
NORTHEAST WISCONSIN

CITY           SKY/WX    TMP DP  RH WIND       PRES   REMARKS
ANTIGO         MOCLDY     8   4  83 N10       30.26R WCI  -6
6HR MIN TEMP:   8; 6HR MAX TEMP:  19;

SHAWANO        CLOUDY    20  13  74 N7        30.29R WCI  11
6HR MIN TEMP:  20; 6HR MAX TEMP:  25;

OCONTO         CLOUDY    17  10  75 NW10G16   30.29R WCI   5
6HR MIN TEMP:  17; 6HR MAX TEMP:  24;

STURGEON BAY   CLOUDY    19  12  73 NW18      30.25R WCI   4
6HR MIN TEMP:  21; 6HR MAX TEMP:  27;

GREEN BAY      FLURRIES  20  14  77 N12       30.28R WCI   8
6HR MIN TEMP:  20; 6HR MAX TEMP:  25; 6HR PCP:  0.01;

MANITOWOC      CLOUDY    22  19  89 NW14      30.25R WCI   9
6HR MIN TEMP:  21; 6HR MAX TEMP:  24; 6HR PCP: TRACE;

APPLETON       FLURRIES  19  18  93 NW10      30.26R WCI   8
CLINTONVILLE   FLURRIES  21  16  79 N7        30.28R WCI  13
OSHKOSH        LGT SNOW  20  16  84 MISG      30.26R FOG
6HR MIN TEMP:  20; 6HR MAX TEMP:  23; 6HR PCP: TRACE;

$$

WIZ032>034-041-042-053>061-271300-
SOUTHWEST WISCONSIN

CITY           SKY/WX    TMP DP  RH WIND       PRES   REMARKS
LA CROSSE      PTCLDY    14   6  70 NW17      30.39R WCI  -3
6HR MIN TEMP:  14; 6HR MAX TEMP:  25;

SPARTA         CLOUDY    15   9  79 NW10      30.37R WCI   2
6HR MIN TEMP:  15; 6HR MAX TEMP:  23;

VIROQUA        CLOUDY    16  12  85 NW8       30.32R WCI   5
6HR MIN TEMP:  15; 6HR MAX TEMP:  22;

BOSCOBEL       CLOUDY    22  13  68 NW8       30.37R WCI  12
6HR MIN TEMP:  22; 6HR MAX TEMP:  26; 6HR PCP: TRACE;

PRAIRIE DU CHI CLOUDY    20  13  73 NW8       30.37R WCI  11
6HR MIN TEMP:  20; 6HR MAX TEMP:  25;

PLATTEVILLE    CLOUDY    24  19  83 CALM      30.32S
6HR MIN TEMP:  23; 6HR MAX TEMP:  24;

$$

WIZ056-057-062-063-064-067-068-271300-
SOUTH CENTRAL WISCONSIN

CITY           SKY/WX    TMP DP  RH WIND       PRES   REMARKS
REEDSBURG      CLOUDY    18  13  82 NW7       30.31S WCI   8
6HR MIN TEMP:  18; 6HR MAX TEMP:  23;

BARABOO/DELLS  MOCLDY    17  14  86 NW5       30.30R WCI  10
6HR MIN TEMP:  17; 6HR MAX TEMP:  23;

LONE ROCK      CLOUDY    24  13  62 NW10      30.34R WCI  14
6HR MIN TEMP:  23; 6HR MAX TEMP:  27; 6HR PCP: TRACE;

MINERAL POINT  CLOUDY    25  18  74 NW10      30.29S WCI  15
MADISON        MOCLDY    22  16  78 N7        30.29R WCI  13
6HR MIN TEMP:  21; 6HR MAX TEMP:  23; 6HR PCP: TRACE;

MIDDLETON      CLOUDY    24  18  78 NW9       30.30R WCI  14
6HR MIN TEMP:  21; 6HR MAX TEMP:  25;

WATERTOWN      CLOUDY    21  19  91 NW9       30.26S WCI  11
6HR MIN TEMP:  15; 6HR MAX TEMP:  21;

MONROE         FLURRIES  23  21  93 NW9       30.28R WCI  13
JANESVILLE     FLURRIES  25  21  86 NW7       30.29R WCI  17
$$

WIZ051-052-058>065-066-070>072-271300-
SOUTHEAST WISCONSIN

CITY           SKY/WX    TMP DP  RH WIND       PRES   REMARKS
MILWAUKEE      MOCLDY    24  18  77 NW12      30.24R WCI  13
6HR MIN TEMP:  22; 6HR MAX TEMP:  24; 6HR PCP: TRACE;

WAUKESHA       CLOUDY    19  18  93 NW12      30.26R WCI   7
MILWAUKEE/TIMM CLOUDY    23  19  86 NW13      30.25S WCI  11
RACINE         CLOUDY    23  18  81 NW10      30.25R WCI  12
6HR MIN TEMP:  20; 6HR MAX TEMP:  24; 6HR PCP: TRACE;

BURLINGTON     MOCLDY    20  17  88 NW12      30.26R WCI   8
6HR MIN TEMP:  16; 6HR MAX TEMP:  20;

KENOSHA        CLOUDY    22  18  85 NW8       30.25R WCI  12
6HR MIN TEMP:  19; 6HR MAX TEMP:  23; 6HR PCP: TRACE;

FOND DU LAC    FLURRIES  21  16  81 NW13      30.26R WCI   9
6HR MIN TEMP:  20; 6HR MAX TEMP:  23; 6HR PCP: TRACE;

SHEBOYGAN      CLOUDY    22  18  85 NW10      30.24R WCI  11
6HR MIN TEMP:  21; 6HR MAX TEMP:  23; 6HR PCP: TRACE;

WEST BEND      CLOUDY    23  19  86 NW9       30.24R WCI  13
JUNEAU         FLURRIES  20  16  86 NW12      30.27S WCI   8
6HR MIN TEMP:  17; 6HR MAX TEMP:  21;

$$

LSZ147-162-271300-
LAKE SUPERIOR

STATION/POSITION TIME  TEMP    WIND        PRES    WAVE
                       AIR SEA DIR/SP/G            HT/PER
                 (UTC) (F)     (DEG/KT/KT) (MB)    (FT/S)
DEVILS ISLAND    1200    8     350/ 17/ 21 1032.2R
PORT WING        1100    8     320/ 11/ 15 1031.2R
SAXON HARBOR     1140   13     330/ 11/ 15 1029.1R
$$

LMZ867-665-643>646-271300-
LAKE MICHIGAN

STATION/POSITION TIME  TEMP    WIND        PRES    WAVE



USA.gov is the U.S. government's official web portal to all federal, state and local government web resources and services.